Theta_e
328 336 348 351 350 350 348 348 347 347 348 349 348 347 349 349 348 348 348 348 348 349 347 346 345 346 346 345 344 342 340 340 341 342 342 344 351 352 351 352 350 350 352
330 338 347 349 351 350 350 349 347 347 349 349 348 346 344 347 346 345 345 347 347 347 345 343 342 341 341 340 340 338 336 335 334 336 335 337 345 350 349 349 348 346 349
331 337 346 348 350 350 350 349 349 348 348 348 347 346 343 342 342 342 342 343 344 344 341 339 336 336 336 335 334 332 331 328 326 325 329 334 340 348 347 347 346 345 345
332 338 344 345 349 350 349 349 348 349 349 346 346 346 343 340 337 338 339 339 339 339 336 334 333 331 330 329 327 328 327 323 322 321 327 331 338 344 347 345 344 344 345
333 338 341 344 347 348 349 349 349 349 348 346 344 342 339 338 336 335 336 337 336 335 333 330 327 326 325 324 325 323 322 320 319 320 323 330 337 344 346 345 343 343 344
332 336 339 344 346 348 348 348 348 348 346 344 340 339 339 336 334 332 332 335 333 330 328 325 323 323 322 322 321 318 318 315 313 316 321 325 334 340 341 344 344 344 343
330 333 338 342 345 346 345 344 344 342 342 339 336 338 337 334 331 328 329 329 327 325 323 322 322 321 319 319 318 316 313 311 308 312 315 321 331 334 335 337 337 337 338
328 328 333 335 339 339 341 343 343 342 341 337 335 335 334 330 328 326 326 325 324 322 322 322 320 319 318 317 315 313 310 306 304 308 312 317 325 330 331 331 332 333 332
324 325 328 333 335 333 336 337 336 339 339 336 334 334 331 327 325 324 323 323 323 322 321 319 318 318 316 314 312 310 307 305 302 306 309 315 322 325 326 327 327 328 329
320 322 324 327 330 332 334 331 333 335 335 334 333 329 326 325 325 324 323 323 322 321 318 317 316 315 313 311 308 306 303 301 300 304 307 312 316 320 322 323 324 325 325
314 317 320 323 325 326 328 328 329 330 330 329 326 323 320 317 318 317 318 323 321 318 316 314 313 311 309 307 305 302 298 297 298 300 305 310 314 317 319 319 320 321 322
313 314 316 319 320 320 320 324 326 324 325 322 319 316 312 311 311 311 316 319 319 316 313 311 308 303 297 296 297 297 296 296 296 297 302 307 311 314 316 317 319 320 321
314 314 313 315 317 317 318 317 318 318 317 315 313 309 307 306 309 309 309 307 307 305 304 302 297 296 296 296 295 295 295 295 296 296 301 306 310 312 314 315 318 320 321
309 312 312 312 313 314 314 315 314 314 312 310 309 306 304 303 305 304 303 302 301 299 297 295 295 295 295 294 294 294 294 294 295 296 299 304 309 312 315 317 318 318 320
306 310 311 311 312 312 310 312 311 311 310 309 306 303 301 301 302 300 299 296 295 294 294 294 294 294 294 293 293 293 293 294 294 295 297 304 308 312 315 317 318 319 319
306 307 309 309 311 310 310 310 310 309 308 305 304 302 299 300 300 299 295 293 293 293 293 293 293 293 293 293 292 292 292 293 293 294 296 303 307 311 314 316 317 318 319
303 305 306 308 310 309 309 308 309 308 304 304 303 300 298 298 297 297 294 292 292 292 292 292 291 291 291 291 291 291 292 292 293 293 294 297 303 310 312 314 315 319 319
301 300 304 306 307 308 309 307 307 306 304 304 301 300 298 297 296 294 293 292 292 291 291 291 290 290 291 291 290 290 291 292 292 292 293 296 298 299 305 308 308 308 308
300 300 299 304 305 306 307 307 306 304 303 302 300 298 297 296 295 294 293 292 291 290 290 290 289 290 289 289 289 289 290 291 291 290 293 293 294 293 293 296 297 299 303
300 300 299 299 303 304 305 304 302 299 302 300 299 297 297 296 294 293 292 291 290 289 289 289 289 288 289 289 287 288 289 290 291 291 291 290 291 291 290 291 292 294 298
297 297 298 296 299 301 301 298 297 297 298 297 298 297 296 296 294 293 292 290 290 289 289 289 288 288 287 287 288 287 288 288 288 289 290 289 289 289 289 290 290 291 293
297 296 297 296 297 299 300 300 300 300 298 298 297 296 295 295 293 292 291 290 289 288 288 288 288 287 287 286 288 288 285 287 288 288 288 287 287 288 288 288 288 289 291
295 295 295 296 296 297 299 298 291 293 291 293 293 293 293 294 293 292 291 290 289 289 288 288 288 288 286 285 285 290 284 287 285 286 287 287 287 287 287 287 287 288 289
296 295 295 295 295 295 297 296 295 295 293 294 295 294 293 292 292 292 291 290 289 288 288 287 287 288 287 286 285 285 286 287 286 283 285 286 286 286 286 287 287 287 288
293 293 293 294 294 295 295 296 294 295 295 293 295 293 292 291 291 290 290 289 288 288 288 287 286 286 287 287 286 284 284 284 284 285 284 283 285 285 286 286 286 287 287
291 291 291 291 291 292 294 294 293 294 292 291 290 291 290 289 289 289 289 288 288 288 287 286 287 287 286 286 286 285 285 284 283 283 283 283 284 284 285 285 285 286 287
Wind_Speed
7 11 13 14 17 16 13 11 9 7 8 8 9 8 10 9 10 9 8 6 7 12 12 11 11 12 14 12 14 13 13 12 13 14 14 15 14 15 14 11 10 11 12
9 11 11 14 15 16 14 13 11 9 10 11 9 9 6 9 9 11 10 11 10 12 11 12 10 9 9 10 13 13 11 12 12 13 12 12 14 13 14 12 12 12 13
13 11 11 13 14 13 14 13 13 13 13 11 12 12 9 8 7 8 8 9 10 11 11 9 7 8 8 9 11 10 10 11 12 12 11 8 8 11 11 11 11 13 13
13 11 10 12 13 13 14 13 12 14 12 13 11 12 10 9 7 8 7 6 6 7 6 7 7 8 7 8 8 9 9 10 11 10 7 7 6 9 9 10 12 12 12
12 11 9 12 15 14 15 14 14 13 12 12 11 10 7 8 9 6 6 7 7 7 8 7 7 7 8 8 9 9 10 11 11 9 7 7 6 10 13 8 10 10 10
10 8 10 11 12 13 12 12 14 13 12 8 8 7 9 8 7 7 7 8 9 8 8 7 8 9 8 9 10 10 11 10 9 7 7 8 7 10 12 15 14 11 9
10 8 8 11 12 14 13 11 11 10 12 11 11 10 10 10 10 9 8 9 9 8 8 9 9 9 9 10 10 11 11 11 7 7 6 7 8 10 10 11 9 12 12
10 7 7 9 9 13 15 13 12 11 12 14 13 12 12 12 11 10 10 10 10 9 10 9 10 10 10 11 10 11 12 11 7 7 7 6 7 8 9 9 9 9 10
9 8 7 7 8 12 12 13 16 14 12 14 14 13 13 12 12 12 12 12 12 12 11 11 10 10 11 11 11 11 11 11 8 6 6 5 8 7 7 8 8 9 10
7 9 10 9 7 7 9 10 12 12 12 14 14 12 10 10 10 10 9 11 12 12 11 10 10 11 11 10 10 10 10 10 7 5 5 5 7 6 7 8 7 8 8
7 9 9 9 8 8 8 7 8 11 12 12 11 11 9 5 7 6 7 11 12 11 10 10 10 11 11 11 11 10 8 4 5 4 4 8 7 7 7 6 6 7 7
12 12 9 10 10 8 5 7 7 7 7 6 7 8 7 7 6 6 6 9 11 11 11 10 10 10 7 4 4 7 4 5 4 4 4 8 7 6 6 6 7 7 7
13 8 12 10 9 10 8 6 4 4 5 5 9 8 7 5 5 4 4 4 4 7 4 5 5 3 5 4 4 4 4 4 3 3 5 7 6 5 5 6 6 7 9
11 13 12 12 11 10 6 7 7 7 6 6 7 9 7 5 6 6 5 5 4 3 5 4 3 4 5 5 4 5 5 4 3 2 4 7 7 6 6 7 8 8 9
12 13 14 14 14 11 11 8 8 8 8 8 8 9 8 8 7 7 6 5 5 4 4 4 4 4 4 4 4 4 4 4 4 3 2 5 6 7 8 8 9 9 10
14 17 15 17 16 14 14 13 10 8 9 9 8 9 10 8 8 7 7 6 6 6 5 4 4 4 3 4 4 4 4 3 4 4 3 4 7 7 9 10 10 9 10
18 14 17 17 16 17 18 14 11 10 9 9 9 10 11 10 11 10 8 7 6 6 7 5 5 4 4 4 5 4 4 4 4 5 4 4 3 13 14 13 12 13 14
12 17 15 15 18 19 17 14 11 10 10 10 9 9 13 12 12 10 8 8 8 7 6 6 5 4 3 3 3 3 3 4 5 6 5 4 5 6 11 15 15 14 11
16 15 15 17 19 21 17 13 13 13 11 10 10 10 13 13 12 10 8 8 9 7 7 6 3 3 4 3 4 4 4 4 5 4 7 7 7 6 5 11 11 10 10
13 15 15 15 18 17 11 10 8 9 10 10 11 12 15 12 14 11 8 9 9 7 7 6 5 3 2 4 6 5 5 4 3 3 5 5 6 6 5 5 5 6 8
8 11 14 15 18 15 14 13 10 13 12 11 11 15 16 15 15 14 9 10 9 9 10 10 5 6 3 4 5 5 4 5 4 3 3 3 5 5 5 5 4 3 4
8 11 12 14 14 15 13 12 7 11 10 9 9 11 14 15 16 15 13 11 12 8 10 10 7 5 3 6 3 3 4 2 1 2 3 3 4 3 5 5 5 5 5
9 9 11 13 14 14 13 9 3 5 3 8 9 10 12 14 14 15 16 14 14 11 11 12 10 9 6 4 5 2 4 4 4 3 5 3 2 2 2 4 5 5 5
9 5 7 9 12 13 14 12 17 12 10 9 12 9 10 14 15 15 15 14 14 10 11 11 10 8 6 6 3 2 3 2 4 4 3 4 3 2 1 2 3 4 4
8 4 3 3 5 8 11 11 10 12 8 3 7 12 12 11 12 13 14 13 13 10 11 12 11 10 6 5 4 4 2 2 2 2 4 5 3 3 2 1 2 3 4
9 8 6 3 2 3 7 9 12 12 6 6 7 11 10 9 10 13 14 14 14 13 13 12 12 12 10 5 5 5 5 5 5 4 2 2 2 3 2 2 4 4 4
Wind_Direction
217 184 175 172 166 164 164 156 151 144 139 132 127 117 108 101 97 82 56 104 112 102 91 76 73 71 67 60 70 64 53 41 41 42 37 39 44 67 65 60 49 51 46
154 177 179 174 170 166 165 162 161 161 148 141 128 115 103 106 109 91 74 80 92 95 78 71 63 60 66 56 57 55 51 45 45 47 41 39 30 62 61 57 48 45 37
159 173 182 174 176 176 169 170 170 174 169 164 151 138 153 124 117 104 105 98 93 96 87 78 84 81 73 62 65 57 53 54 49 44 40 43 43 37 60 63 55 49 43
164 170 169 176 178 177 169 174 180 186 179 164 153 135 142 143 162 164 159 127 119 98 101 93 92 87 83 80 74 75 65 63 63 54 51 42 32 38 51 61 55 52 48
170 168 172 174 181 178 185 181 185 176 175 146 139 136 146 164 154 155 150 150 140 127 124 113 106 96 89 78 69 63 74 76 71 66 59 42 37 53 47 78 68 58 47
170 168 176 175 169 172 169 175 176 176 164 165 172 163 163 180 165 153 149 129 130 128 120 109 98 90 81 76 69 65 62 66 74 70 59 40 38 53 51 56 58 56 55
169 170 176 179 171 163 164 173 161 165 154 179 183 185 173 169 166 157 151 140 133 126 120 115 105 94 88 78 67 66 65 63 57 58 49 41 45 60 60 58 62 58 49
173 178 183 184 192 186 190 184 178 184 178 191 188 185 175 172 168 162 157 152 144 137 127 119 114 105 93 83 72 67 62 58 60 59 42 30 30 50 53 57 53 55 54
174 177 190 197 198 199 194 200 198 191 187 189 191 179 175 173 171 169 164 160 151 144 139 132 122 109 95 90 88 76 69 63 62 47 43 30 21 49 51 49 51 49 49
192 192 192 193 193 188 199 206 187 194 178 179 171 171 164 165 169 165 159 161 153 144 138 131 121 111 103 97 90 82 78 73 69 59 40 33 25 39 48 50 53 59 58
220 212 198 194 191 181 182 188 184 175 164 164 160 155 141 145 148 144 159 161 153 145 138 132 121 108 95 86 80 76 74 63 68 51 33 20 32 41 46 53 55 57 62
214 212 207 196 191 182 178 184 172 165 166 160 152 147 146 150 155 153 170 151 146 144 138 127 114 101 92 84 69 62 67 64 58 49 36 14 24 37 47 54 61 64 72
210 204 202 201 195 185 184 177 177 174 162 162 161 156 154 155 162 154 133 110 109 97 100 104 111 101 101 105 92 82 77 68 58 47 26 20 35 51 61 64 73 75 70
199 207 195 195 197 199 185 187 181 177 174 172 174 165 161 165 171 164 154 145 140 138 139 142 135 123 108 95 93 93 82 71 62 65 48 29 40 56 75 78 79 83 83
214 212 206 192 196 193 194 191 187 190 183 178 175 176 169 174 175 169 164 160 160 156 161 154 147 136 121 104 85 86 77 64 68 69 64 27 58 84 93 92 88 90 85
216 214 199 201 198 189 197 192 194 190 185 182 182 184 179 175 173 178 172 173 171 172 165 164 154 144 130 127 108 96 85 73 75 86 88 69 63 70 93 94 94 93 101
217 210 205 200 198 198 198 194 193 191 184 189 189 185 184 181 181 178 175 177 178 171 158 152 148 152 159 145 118 106 101 98 102 100 100 93 60 56 65 73 78 71 77
213 210 202 197 197 201 203 196 194 190 189 191 188 187 187 186 183 180 178 182 172 166 168 166 160 151 136 115 109 90 94 103 95 81 101 100 92 79 75 69 62 63 65
211 208 206 201 200 199 200 196 196 190 194 191 186 186 187 188 182 180 184 177 169 168 172 164 158 161 166 148 124 98 97 115 120 101 109 103 95 90 83 76 77 73 70
214 211 206 197 201 196 195 195 194 191 198 190 192 192 185 185 181 182 179 171 170 170 170 172 163 159 147 141 110 90 94 113 121 120 121 110 106 89 81 87 86 69 73
221 207 205 196 198 182 183 180 197 205 201 201 200 194 187 183 181 182 179 171 174 179 180 175 157 163 160 172 132 97 80 91 84 116 131 101 90 56 59 73 63 62 55
233 217 207 208 199 197 193 195 198 194 211 210 203 202 196 188 181 177 175 179 179 174 179 180 171 149 146 188 148 117 147 163 186 120 156 144 108 109 103 84 89 88 87
257 223 216 207 196 199 200 182 111 108 123 185 197 193 194 190 188 186 181 176 179 183 186 185 184 177 160 188 224 156 149 194 149 176 210 186 153 73 90 69 88 99 109
289 278 226 201 199 191 187 189 197 203 196 200 196 196 196 193 189 190 186 182 180 182 186 187 186 188 151 166 169 188 41 92 170 172 201 218 222 240 85 66 90 101 112
312 325 297 236 208 190 189 196 202 213 214 159 184 179 184 186 193 189 189 184 185 185 189 185 183 195 194 169 159 153 135 82 64 145 165 176 204 195 175 59 135 141 135
355 357 24 67 99 166 190 201 202 218 208 181 174 182 187 188 180 191 189 187 188 189 187 184 186 195 196 198 182 174 163 165 177 159 158 162 174 155 187 192 164 158 150